Year,Month,Day,Hour,Minute,Value (Times are PST for temperature in C)
2012,03,08,00,00,3.40
2012,03,08,00,01,3.40
2012,03,08,00,02,3.40
2012,03,08,00,03,3.40
2012,03,08,00,04,3.40
2012,03,08,00,05,3.30
2012,03,08,00,06,3.30
2012,03,08,00,07,3.30
2012,03,08,00,08,3.30
2012,03,08,00,09,3.30
2012,03,08,00,10,3.40
2012,03,08,00,11,3.30
2012,03,08,00,12,3.30
2012,03,08,00,13,3.40
2012,03,08,00,14,3.30
2012,03,08,00,15,3.30
2012,03,08,00,16,3.40
2012,03,08,00,17,3.40
2012,03,08,00,18,3.40
2012,03,08,00,19,3.40
2012,03,08,00,20,3.40
2012,03,08,00,21,3.40
2012,03,08,00,22,3.40
2012,03,08,00,23,3.40
2012,03,08,00,24,3.40
2012,03,08,00,25,3.40
2012,03,08,00,26,3.40
2012,03,08,00,27,3.40
2012,03,08,00,28,3.40
2012,03,08,00,29,3.40
2012,03,08,00,30,3.40
2012,03,08,00,31,3.40
2012,03,08,00,32,3.40
2012,03,08,00,33,3.40
2012,03,08,00,34,3.40
2012,03,08,00,35,3.40
2012,03,08,00,36,3.40
2012,03,08,00,37,3.40
2012,03,08,00,38,3.40
2012,03,08,00,39,3.40
2012,03,08,00,40,3.40
2012,03,08,00,41,3.40
2012,03,08,00,42,3.40
2012,03,08,00,43,3.40
2012,03,08,00,44,3.40
2012,03,08,00,45,3.40
2012,03,08,00,46,3.40
2012,03,08,00,47,3.40
2012,03,08,00,48,3.50
2012,03,08,00,49,3.50
2012,03,08,00,50,3.50
2012,03,08,00,51,3.50
2012,03,08,00,52,3.50
2012,03,08,00,53,3.50
2012,03,08,00,54,3.50
2012,03,08,00,55,3.50
2012,03,08,00,56,3.50
2012,03,08,00,57,3.50
2012,03,08,00,58,3.50
2012,03,08,00,59,3.40
2012,03,08,01,00,3.40
2012,03,08,01,01,3.40
2012,03,08,01,02,3.50
2012,03,08,01,03,3.40
2012,03,08,01,04,3.50
2012,03,08,01,05,3.50
2012,03,08,01,06,3.50
2012,03,08,01,07,3.50
2012,03,08,01,08,3.50
2012,03,08,01,09,3.50
2012,03,08,01,10,3.50
2012,03,08,01,11,3.50
2012,03,08,01,12,3.50
2012,03,08,01,13,3.50
2012,03,08,01,14,3.50
2012,03,08,01,15,3.50
2012,03,08,01,16,3.50
2012,03,08,01,17,3.40
2012,03,08,01,18,3.50
2012,03,08,01,19,3.50
2012,03,08,01,20,3.40
2012,03,08,01,21,3.40
2012,03,08,01,22,3.40
2012,03,08,01,23,3.40
2012,03,08,01,24,3.40
2012,03,08,01,25,3.40
2012,03,08,01,26,3.40
2012,03,08,01,27,3.40
2012,03,08,01,28,3.40
2012,03,08,01,29,3.40
2012,03,08,01,30,3.40
2012,03,08,01,31,3.40
2012,03,08,01,32,3.40
2012,03,08,01,33,3.40
2012,03,08,01,34,3.40
2012,03,08,01,35,3.40
2012,03,08,01,36,3.40
2012,03,08,01,37,3.40
2012,03,08,01,38,3.40
2012,03,08,01,39,3.40
2012,03,08,01,40,3.40
2012,03,08,01,41,3.40
2012,03,08,01,42,3.40
2012,03,08,01,43,3.40
2012,03,08,01,44,3.40
2012,03,08,01,45,3.40
2012,03,08,01,46,3.40
2012,03,08,01,47,3.40
2012,03,08,01,48,3.40
2012,03,08,01,49,3.40
2012,03,08,01,50,3.40
2012,03,08,01,51,3.40
2012,03,08,01,52,3.40
2012,03,08,01,53,3.40
2012,03,08,01,54,3.40
2012,03,08,01,55,3.30
2012,03,08,01,56,3.30
2012,03,08,01,57,3.30
2012,03,08,01,58,3.30
2012,03,08,01,59,3.30
2012,03,08,02,00,3.30
2012,03,08,02,01,3.30
2012,03,08,02,02,3.30
2012,03,08,02,03,3.30
2012,03,08,02,04,3.30
2012,03,08,02,05,3.30
2012,03,08,02,06,3.30
2012,03,08,02,07,3.20
2012,03,08,02,08,3.20
2012,03,08,02,09,3.20
2012,03,08,02,10,3.20
2012,03,08,02,11,3.20
2012,03,08,02,12,3.20
2012,03,08,02,13,3.20
2012,03,08,02,14,3.20
2012,03,08,02,15,3.20
2012,03,08,02,16,3.20
2012,03,08,02,17,3.20
2012,03,08,02,18,3.20
2012,03,08,02,19,3.20
2012,03,08,02,20,3.20
2012,03,08,02,21,3.30
2012,03,08,02,22,3.30
2012,03,08,02,23,3.30
2012,03,08,02,24,3.30
2012,03,08,02,25,3.20
2012,03,08,02,26,3.20
2012,03,08,02,27,3.20
2012,03,08,02,28,3.30
2012,03,08,02,29,3.20
2012,03,08,02,30,3.30
2012,03,08,02,31,3.20
2012,03,08,02,32,3.20
2012,03,08,02,33,3.20
2012,03,08,02,34,3.20
2012,03,08,02,35,3.20
2012,03,08,02,36,3.20
2012,03,08,02,37,3.20
2012,03,08,02,38,3.30
2012,03,08,02,39,3.30
2012,03,08,02,40,3.30
2012,03,08,02,41,3.30
2012,03,08,02,42,3.30
2012,03,08,02,43,3.30
2012,03,08,02,44,3.30
2012,03,08,02,45,3.30
2012,03,08,02,46,3.30
2012,03,08,02,47,3.30
2012,03,08,02,48,3.30
2012,03,08,02,49,3.30
2012,03,08,02,50,3.30
2012,03,08,02,51,3.30
2012,03,08,02,52,3.30
2012,03,08,02,53,3.30
2012,03,08,02,54,3.30
2012,03,08,02,55,3.30
2012,03,08,02,56,3.30
2012,03,08,02,57,3.30
2012,03,08,02,58,3.30
2012,03,08,02,59,3.40
2012,03,08,03,00,3.30
2012,03,08,03,01,3.40
2012,03,08,03,02,3.40
2012,03,08,03,03,3.40
2012,03,08,03,04,3.40
2012,03,08,03,05,3.40
2012,03,08,03,06,3.40
2012,03,08,03,07,3.40
2012,03,08,03,08,3.40
2012,03,08,03,09,3.40
2012,03,08,03,10,3.40
2012,03,08,03,11,3.40
2012,03,08,03,12,3.40
2012,03,08,03,13,3.40
2012,03,08,03,14,3.40
2012,03,08,03,15,3.40
2012,03,08,03,16,3.40
2012,03,08,03,17,3.40
2012,03,08,03,18,3.40
2012,03,08,03,19,3.40
2012,03,08,03,20,3.40
2012,03,08,03,21,3.40
2012,03,08,03,22,3.40
2012,03,08,03,23,3.40
2012,03,08,03,24,3.40
2012,03,08,03,25,3.40
2012,03,08,03,26,3.30
2012,03,08,03,27,3.30
2012,03,08,03,28,3.30
2012,03,08,03,29,3.30
2012,03,08,03,30,3.30
2012,03,08,03,31,3.30
2012,03,08,03,32,3.30
2012,03,08,03,33,3.30
2012,03,08,03,34,3.30
2012,03,08,03,35,3.30
2012,03,08,03,36,3.30
2012,03,08,03,37,3.30
2012,03,08,03,38,3.30
2012,03,08,03,39,3.30
2012,03,08,03,40,3.30
2012,03,08,03,41,3.30
2012,03,08,03,42,3.30
2012,03,08,03,43,3.30
2012,03,08,03,44,3.30
2012,03,08,03,45,3.30
2012,03,08,03,46,3.30
2012,03,08,03,47,3.30
2012,03,08,03,48,3.30
2012,03,08,03,49,3.30
2012,03,08,03,50,3.30
2012,03,08,03,51,3.30
2012,03,08,03,52,3.30
2012,03,08,03,53,3.30
2012,03,08,03,54,3.30
2012,03,08,03,55,3.30
2012,03,08,03,56,3.30
2012,03,08,03,57,3.20
2012,03,08,03,58,3.20
2012,03,08,03,59,3.20
2012,03,08,04,00,3.20
2012,03,08,04,01,3.20
2012,03,08,04,02,3.20
2012,03,08,04,03,3.20
2012,03,08,04,04,3.20
2012,03,08,04,05,3.10
2012,03,08,04,06,3.10
2012,03,08,04,07,3.10
2012,03,08,04,08,3.10
2012,03,08,04,09,3.10
2012,03,08,04,10,3.10
2012,03,08,04,11,3.10
2012,03,08,04,12,3.00
2012,03,08,04,13,3.00
2012,03,08,04,14,3.00
2012,03,08,04,15,3.00
2012,03,08,04,16,3.00
2012,03,08,04,17,2.90
2012,03,08,04,18,2.90
2012,03,08,04,19,2.90
2012,03,08,04,20,2.90
2012,03,08,04,21,2.90
2012,03,08,04,22,2.90
2012,03,08,04,23,2.90
2012,03,08,04,24,2.90
2012,03,08,04,25,2.90
2012,03,08,04,26,2.90
2012,03,08,04,27,2.90
2012,03,08,04,28,2.90
2012,03,08,04,29,2.90
2012,03,08,04,30,2.90
2012,03,08,04,31,2.90
2012,03,08,04,32,2.90
2012,03,08,04,33,2.80
2012,03,08,04,34,2.80
2012,03,08,04,35,2.80
2012,03,08,04,36,2.80
2012,03,08,04,37,2.80
2012,03,08,04,38,2.80
2012,03,08,04,39,2.80
2012,03,08,04,40,2.80
2012,03,08,04,41,2.80
2012,03,08,04,42,2.80
2012,03,08,04,43,2.80
2012,03,08,04,44,2.80
2012,03,08,04,45,2.80
2012,03,08,04,46,2.80
2012,03,08,04,47,2.80
2012,03,08,04,48,2.80
2012,03,08,04,49,2.80
2012,03,08,04,50,2.80
2012,03,08,04,51,2.80
2012,03,08,04,52,2.80
2012,03,08,04,53,2.80
2012,03,08,04,54,2.80
2012,03,08,04,55,2.80
2012,03,08,04,56,2.80
2012,03,08,04,57,2.70
2012,03,08,04,58,2.70
2012,03,08,04,59,2.70
2012,03,08,05,00,2.70
2012,03,08,05,01,2.70
2012,03,08,05,02,2.70
2012,03,08,05,03,2.70
2012,03,08,05,04,2.70
2012,03,08,05,05,2.70
2012,03,08,05,06,2.70
2012,03,08,05,07,2.70
2012,03,08,05,08,2.70
2012,03,08,05,09,2.70
2012,03,08,05,10,2.70
2012,03,08,05,11,2.70
2012,03,08,05,12,2.70
2012,03,08,05,13,2.70
2012,03,08,05,14,2.70
2012,03,08,05,15,2.70
2012,03,08,05,16,2.70
2012,03,08,05,17,2.70
2012,03,08,05,18,2.60
2012,03,08,05,19,2.60
2012,03,08,05,20,2.60
2012,03,08,05,21,2.60
2012,03,08,05,22,2.60
2012,03,08,05,23,2.60
2012,03,08,05,24,2.60
2012,03,08,05,25,2.60
2012,03,08,05,26,2.60
2012,03,08,05,27,2.60
2012,03,08,05,28,2.60
2012,03,08,05,29,2.60
2012,03,08,05,30,2.60
2012,03,08,05,31,2.60
2012,03,08,05,32,2.70
2012,03,08,05,33,2.70
2012,03,08,05,34,2.70
2012,03,08,05,35,2.80
2012,03,08,05,36,2.80
2012,03,08,05,37,2.90
2012,03,08,05,38,2.90
2012,03,08,05,39,3.00
2012,03,08,05,40,3.10
2012,03,08,05,41,3.10
2012,03,08,05,42,3.10
2012,03,08,05,43,3.20
2012,03,08,05,44,3.20
2012,03,08,05,45,3.20
2012,03,08,05,46,3.20
2012,03,08,05,47,3.20
2012,03,08,05,48,3.20
2012,03,08,05,49,3.20
2012,03,08,05,50,3.20
2012,03,08,05,51,3.20
2012,03,08,05,52,3.20
2012,03,08,05,53,3.10
2012,03,08,05,54,3.10
2012,03,08,05,55,3.10
2012,03,08,05,56,3.00
2012,03,08,05,57,3.00
2012,03,08,05,58,3.00
2012,03,08,05,59,2.90
2012,03,08,06,00,2.90
2012,03,08,06,01,2.90
2012,03,08,06,02,2.80
2012,03,08,06,03,2.80
2012,03,08,06,04,2.80
2012,03,08,06,05,2.80
2012,03,08,06,06,2.80
2012,03,08,06,07,2.80
2012,03,08,06,08,2.70
2012,03,08,06,09,2.70
2012,03,08,06,10,2.70
2012,03,08,06,11,2.70
2012,03,08,06,12,2.70
2012,03,08,06,13,2.70
2012,03,08,06,14,2.60
2012,03,08,06,15,2.60
2012,03,08,06,16,2.70
2012,03,08,06,17,2.60
2012,03,08,06,18,2.60
2012,03,08,06,19,2.60
2012,03,08,06,20,2.60
2012,03,08,06,21,2.70
2012,03,08,06,22,2.70
2012,03,08,06,23,2.70
2012,03,08,06,24,2.70
2012,03,08,06,25,2.70
2012,03,08,06,26,2.70
2012,03,08,06,27,2.70
2012,03,08,06,28,2.70
2012,03,08,06,29,2.70
2012,03,08,06,30,2.70
2012,03,08,06,31,2.70
2012,03,08,06,32,2.70
2012,03,08,06,33,2.70
2012,03,08,06,34,2.70
2012,03,08,06,35,2.70
2012,03,08,06,36,2.70
2012,03,08,06,37,2.70
2012,03,08,06,38,2.70
2012,03,08,06,39,2.70
2012,03,08,06,40,2.70
2012,03,08,06,41,2.70
2012,03,08,06,42,2.70
2012,03,08,06,43,2.70
2012,03,08,06,44,2.70
2012,03,08,06,45,2.70
2012,03,08,06,46,2.70
2012,03,08,06,47,2.70
2012,03,08,06,48,2.70
2012,03,08,06,49,2.70
2012,03,08,06,50,2.70
2012,03,08,06,51,2.70
2012,03,08,06,52,2.70
2012,03,08,06,53,2.70
2012,03,08,06,54,2.70
2012,03,08,06,55,2.70
2012,03,08,06,56,2.70
2012,03,08,06,57,2.70
2012,03,08,06,58,2.80
2012,03,08,06,59,2.80
2012,03,08,07,00,2.80
2012,03,08,07,01,2.80
2012,03,08,07,02,2.80
2012,03,08,07,03,2.80
2012,03,08,07,04,2.80
2012,03,08,07,05,2.80
2012,03,08,07,06,2.80
2012,03,08,07,07,2.80
2012,03,08,07,08,2.80
2012,03,08,07,09,2.80
2012,03,08,07,10,2.80
2012,03,08,07,11,2.80
2012,03,08,07,12,2.80
2012,03,08,07,13,2.80
2012,03,08,07,14,2.80
2012,03,08,07,15,2.80
2012,03,08,07,16,2.80
2012,03,08,07,17,2.80
2012,03,08,07,18,2.80
2012,03,08,07,19,2.80
2012,03,08,07,20,2.80
2012,03,08,07,21,2.90
2012,03,08,07,22,2.90
2012,03,08,07,23,2.90
2012,03,08,07,24,2.90
2012,03,08,07,25,2.90
2012,03,08,07,26,2.90
2012,03,08,07,27,2.90
2012,03,08,07,28,2.90
2012,03,08,07,29,3.00
2012,03,08,07,30,3.00
2012,03,08,07,31,3.00
2012,03,08,07,32,3.00
2012,03,08,07,33,3.00
2012,03,08,07,34,3.00
2012,03,08,07,35,3.00
2012,03,08,07,36,3.00
2012,03,08,07,37,3.00
2012,03,08,07,38,3.00
2012,03,08,07,39,3.00
2012,03,08,07,40,3.10
2012,03,08,07,41,3.10
2012,03,08,07,42,3.10
2012,03,08,07,43,3.10
2012,03,08,07,44,3.10
2012,03,08,07,45,3.10
2012,03,08,07,46,3.10
2012,03,08,07,47,3.10
2012,03,08,07,48,3.10
2012,03,08,07,49,3.10
2012,03,08,07,50,3.10
2012,03,08,07,51,3.10
2012,03,08,07,52,3.10
2012,03,08,07,53,3.10
2012,03,08,07,54,3.10
2012,03,08,07,55,3.10
2012,03,08,07,56,3.10
2012,03,08,07,57,3.10
2012,03,08,07,58,3.20
2012,03,08,07,59,3.20
2012,03,08,08,00,3.20
2012,03,08,08,01,3.20
2012,03,08,08,02,3.20
2012,03,08,08,03,3.20
2012,03,08,08,04,3.20
2012,03,08,08,05,3.20
2012,03,08,08,06,3.20
2012,03,08,08,07,3.20
2012,03,08,08,08,3.20
2012,03,08,08,09,3.20
2012,03,08,08,10,3.30
2012,03,08,08,11,3.30
2012,03,08,08,12,3.30
2012,03,08,08,13,3.30
2012,03,08,08,14,3.30
2012,03,08,08,15,3.30
2012,03,08,08,16,3.30
2012,03,08,08,17,3.30
2012,03,08,08,18,3.40
2012,03,08,08,19,3.40
2012,03,08,08,20,3.40
2012,03,08,08,21,3.50
2012,03,08,08,22,3.50
2012,03,08,08,23,3.60
2012,03,08,08,24,3.60
2012,03,08,08,25,3.60
2012,03,08,08,26,3.70
2012,03,08,08,27,3.70
2012,03,08,08,28,3.70
2012,03,08,08,29,3.70
2012,03,08,08,30,3.80
2012,03,08,08,31,3.80
2012,03,08,08,32,3.80
2012,03,08,08,33,3.80
2012,03,08,08,34,3.80
2012,03,08,08,35,3.80
2012,03,08,08,36,3.80
2012,03,08,08,37,3.80
2012,03,08,08,38,3.80
2012,03,08,08,39,3.80
2012,03,08,08,40,3.80
2012,03,08,08,41,3.80
2012,03,08,08,42,3.90
2012,03,08,08,43,3.90
2012,03,08,08,44,3.90
2012,03,08,08,45,3.90
2012,03,08,08,46,3.90
2012,03,08,08,47,4.00
2012,03,08,08,48,4.00
2012,03,08,08,49,4.00
2012,03,08,08,50,4.00
2012,03,08,08,51,4.00
2012,03,08,08,52,4.00
2012,03,08,08,53,4.00
2012,03,08,08,54,4.00
2012,03,08,08,55,4.10
2012,03,08,08,56,4.10
2012,03,08,08,57,4.10
2012,03,08,08,58,4.10
2012,03,08,08,59,4.10
2012,03,08,09,00,4.10
2012,03,08,09,01,4.10
2012,03,08,09,02,4.10
2012,03,08,09,03,4.10
2012,03,08,09,04,4.10
2012,03,08,09,05,4.10
2012,03,08,09,06,4.10
2012,03,08,09,07,4.10
2012,03,08,09,08,4.10
2012,03,08,09,09,4.10
2012,03,08,09,10,4.10
2012,03,08,09,11,4.10
2012,03,08,09,12,4.10
2012,03,08,09,13,4.10
2012,03,08,09,14,4.10
2012,03,08,09,15,4.20
2012,03,08,09,16,4.20
2012,03,08,09,17,4.20
2012,03,08,09,18,4.20
2012,03,08,09,19,4.20
2012,03,08,09,20,4.20
2012,03,08,09,21,4.20
2012,03,08,09,22,4.20
2012,03,08,09,23,4.20
2012,03,08,09,24,4.20
2012,03,08,09,25,4.20
2012,03,08,09,26,4.20
2012,03,08,09,27,4.20
2012,03,08,09,28,4.20
2012,03,08,09,29,4.20
2012,03,08,09,30,4.20
2012,03,08,09,31,4.20
2012,03,08,09,32,4.20
2012,03,08,09,33,4.20
2012,03,08,09,34,4.20
2012,03,08,09,35,4.20
2012,03,08,09,36,4.20
2012,03,08,09,37,4.20
2012,03,08,09,38,4.20
2012,03,08,09,39,4.20
2012,03,08,09,40,4.20
2012,03,08,09,41,4.20
2012,03,08,09,42,4.20
2012,03,08,09,43,4.20
2012,03,08,09,44,4.30
2012,03,08,09,45,4.30
2012,03,08,09,46,4.30
2012,03,08,09,47,4.30
2012,03,08,09,48,4.30
2012,03,08,09,49,4.30
2012,03,08,09,50,4.40
2012,03,08,09,51,4.40
2012,03,08,09,52,4.40
2012,03,08,09,53,4.50
2012,03,08,09,54,4.50
2012,03,08,09,55,4.50
2012,03,08,09,56,4.60
2012,03,08,09,57,4.60
2012,03,08,09,58,4.60
2012,03,08,09,59,4.60
2012,03,08,10,00,4.70
2012,03,08,10,01,4.70
2012,03,08,10,02,4.70
2012,03,08,10,03,4.80
2012,03,08,10,04,4.80
2012,03,08,10,05,4.80
2012,03,08,10,06,4.80
2012,03,08,10,07,4.80
2012,03,08,10,08,4.80
2012,03,08,10,09,4.80
2012,03,08,10,10,4.80
2012,03,08,10,11,4.80
2012,03,08,10,12,4.80
2012,03,08,10,13,4.80
2012,03,08,10,14,4.80
2012,03,08,10,15,4.80
2012,03,08,10,16,4.90
2012,03,08,10,17,4.90
2012,03,08,10,18,4.90
2012,03,08,10,19,4.90
2012,03,08,10,20,4.90
2012,03,08,10,21,4.90
2012,03,08,10,22,4.90
2012,03,08,10,23,4.90
2012,03,08,10,24,4.90
2012,03,08,10,25,4.90
2012,03,08,10,26,4.90
2012,03,08,10,27,4.90
2012,03,08,10,28,4.90
2012,03,08,10,29,5.00
2012,03,08,10,30,5.00
2012,03,08,10,31,5.20
2012,03,08,10,32,5.20
2012,03,08,10,33,5.30
2012,03,08,10,34,5.30
2012,03,08,10,35,5.30
2012,03,08,10,36,5.30
2012,03,08,10,37,5.20
2012,03,08,10,38,5.20
2012,03,08,10,39,5.20
2012,03,08,10,40,5.10
2012,03,08,10,41,5.10
2012,03,08,10,42,5.10
2012,03,08,10,43,5.10
2012,03,08,10,44,5.10
2012,03,08,10,45,5.10
2012,03,08,10,46,5.10
2012,03,08,10,47,5.10
2012,03,08,10,48,5.10
2012,03,08,10,49,5.10
2012,03,08,10,50,5.10
2012,03,08,10,51,5.10
2012,03,08,10,52,5.00
2012,03,08,10,53,5.00
2012,03,08,10,54,5.00
2012,03,08,10,55,5.00
2012,03,08,10,56,5.00
2012,03,08,10,57,5.10
2012,03,08,10,58,5.10
2012,03,08,10,59,5.20
2012,03,08,11,00,5.20
2012,03,08,11,01,5.30
2012,03,08,11,02,5.30
2012,03,08,11,03,5.30
2012,03,08,11,04,5.30
2012,03,08,11,05,5.30
2012,03,08,11,06,5.30
2012,03,08,11,07,5.30
2012,03,08,11,08,5.30
2012,03,08,11,09,5.30
2012,03,08,11,10,5.30
2012,03,08,11,11,5.30
2012,03,08,11,12,5.30
2012,03,08,11,13,5.30
2012,03,08,11,14,5.40
2012,03,08,11,15,5.40
2012,03,08,11,16,5.50
2012,03,08,11,17,5.50
2012,03,08,11,18,5.50
2012,03,08,11,19,5.50
2012,03,08,11,20,5.50
2012,03,08,11,21,5.50
2012,03,08,11,22,5.50
2012,03,08,11,23,5.50
2012,03,08,11,24,5.50
2012,03,08,11,25,5.50
2012,03,08,11,26,5.50
2012,03,08,11,27,5.60
2012,03,08,11,28,5.70
2012,03,08,11,29,5.70
2012,03,08,11,30,5.80
2012,03,08,11,31,5.80
2012,03,08,11,32,5.80
2012,03,08,11,33,5.80
2012,03,08,11,34,5.70
2012,03,08,11,35,5.60
2012,03,08,11,36,5.60
2012,03,08,11,37,5.50
2012,03,08,11,38,5.50
2012,03,08,11,39,5.60
2012,03,08,11,40,5.60
2012,03,08,11,41,5.70
2012,03,08,11,42,5.70
2012,03,08,11,43,5.60
2012,03,08,11,44,5.60
2012,03,08,11,45,5.60
2012,03,08,11,46,5.70
2012,03,08,11,47,5.70
2012,03,08,11,48,5.70
2012,03,08,11,49,5.70
2012,03,08,11,50,5.80
2012,03,08,11,51,5.80
2012,03,08,11,52,5.80
2012,03,08,11,53,5.80
2012,03,08,11,54,5.90
2012,03,08,11,55,5.90
2012,03,08,11,56,5.90
2012,03,08,11,57,5.90
2012,03,08,11,58,5.90
2012,03,08,11,59,5.90
2012,03,08,12,00,6.00
2012,03,08,12,01,6.00
2012,03,08,12,02,6.00
2012,03,08,12,03,6.00
2012,03,08,12,04,6.00
2012,03,08,12,05,5.90
2012,03,08,12,06,5.90
2012,03,08,12,07,5.80
2012,03,08,12,08,5.90
2012,03,08,12,09,5.90
2012,03,08,12,10,5.90
2012,03,08,12,11,6.00
2012,03,08,12,12,6.00
2012,03,08,12,13,6.00
2012,03,08,12,14,6.00
2012,03,08,12,15,6.00
2012,03,08,12,16,6.00
2012,03,08,12,17,6.10
2012,03,08,12,18,6.10
2012,03,08,12,19,6.10
2012,03,08,12,20,6.20
2012,03,08,12,21,6.20
2012,03,08,12,22,6.10
2012,03,08,12,23,6.10
2012,03,08,12,24,6.00
2012,03,08,12,25,6.00
2012,03,08,12,26,6.00
2012,03,08,12,27,6.00
2012,03,08,12,28,6.00
2012,03,08,12,29,6.00
2012,03,08,12,30,6.10
2012,03,08,12,31,6.20
2012,03,08,12,32,6.20
2012,03,08,12,33,6.20
2012,03,08,12,34,6.10
2012,03,08,12,35,6.10
2012,03,08,12,36,6.00
2012,03,08,12,37,6.10
2012,03,08,12,38,6.10
2012,03,08,12,39,6.10
2012,03,08,12,40,6.10
2012,03,08,12,41,6.10
2012,03,08,12,42,6.10
2012,03,08,12,43,6.10
2012,03,08,12,44,6.10
2012,03,08,12,45,6.20
2012,03,08,12,46,6.30
2012,03,08,12,47,6.50
2012,03,08,12,48,6.60
2012,03,08,12,49,6.60
2012,03,08,12,50,6.60
2012,03,08,12,51,6.60
2012,03,08,12,52,6.60
2012,03,08,12,53,6.60
2012,03,08,12,54,6.60
2012,03,08,12,55,6.60
2012,03,08,12,56,6.60
2012,03,08,12,57,6.60
2012,03,08,12,58,6.60
2012,03,08,12,59,6.50
2012,03,08,13,00,6.50
2012,03,08,13,01,6.50
2012,03,08,13,02,6.40
2012,03,08,13,03,6.40
2012,03,08,13,04,6.40
2012,03,08,13,05,6.40
2012,03,08,13,06,6.50
2012,03,08,13,07,6.50
2012,03,08,13,08,6.60
2012,03,08,13,09,6.60
2012,03,08,13,10,6.60
2012,03,08,13,11,6.50
2012,03,08,13,12,6.50
2012,03,08,13,13,6.50
2012,03,08,13,14,6.50
2012,03,08,13,15,6.60
2012,03,08,13,16,6.70
2012,03,08,13,17,6.70
2012,03,08,13,18,6.70
2012,03,08,13,19,6.70
2012,03,08,13,20,6.80
2012,03,08,13,21,6.80
2012,03,08,13,22,6.80
2012,03,08,13,23,6.80
2012,03,08,13,24,6.90
2012,03,08,13,25,6.90
2012,03,08,13,26,6.90
2012,03,08,13,27,6.90
2012,03,08,13,28,6.90
2012,03,08,13,29,6.90
2012,03,08,13,30,6.90
2012,03,08,13,31,6.90
2012,03,08,13,32,6.90
2012,03,08,13,33,6.90
2012,03,08,13,34,6.90
2012,03,08,13,35,6.90
2012,03,08,13,36,7.00
2012,03,08,13,37,7.00
2012,03,08,13,38,7.00
2012,03,08,13,39,7.10
2012,03,08,13,40,7.10
2012,03,08,13,41,7.20
2012,03,08,13,42,7.30
2012,03,08,13,43,7.30
2012,03,08,13,44,7.30
2012,03,08,13,45,7.30
2012,03,08,13,46,7.20
2012,03,08,13,47,7.20
2012,03,08,13,48,7.20
2012,03,08,13,49,7.30
2012,03,08,13,50,7.40
2012,03,08,13,51,7.50
2012,03,08,13,52,7.50
2012,03,08,13,53,7.70
2012,03,08,13,54,7.80
2012,03,08,13,55,7.80
2012,03,08,13,56,7.80
2012,03,08,13,57,7.70
2012,03,08,13,58,7.70
2012,03,08,13,59,7.70
2012,03,08,14,00,7.70
2012,03,08,14,01,7.70
2012,03,08,14,02,7.70
2012,03,08,14,03,7.70
2012,03,08,14,04,7.70
2012,03,08,14,05,7.60
2012,03,08,14,06,7.60
2012,03,08,14,07,7.60
2012,03,08,14,08,7.60
2012,03,08,14,09,7.60
2012,03,08,14,10,7.60
2012,03,08,14,11,7.70
2012,03,08,14,12,7.90
2012,03,08,14,13,8.10
2012,03,08,14,14,8.30
2012,03,08,14,15,8.30
2012,03,08,14,16,8.30
2012,03,08,14,17,8.30
2012,03,08,14,18,8.20
2012,03,08,14,19,8.10
2012,03,08,14,20,8.00
2012,03,08,14,21,7.90
2012,03,08,14,22,7.90
2012,03,08,14,23,7.90
2012,03,08,14,24,7.90
2012,03,08,14,25,8.00
2012,03,08,14,26,8.10
2012,03,08,14,27,8.20
2012,03,08,14,28,8.30
2012,03,08,14,29,8.50
2012,03,08,14,30,8.60
2012,03,08,14,31,8.70
2012,03,08,14,32,8.70
2012,03,08,14,33,8.70
2012,03,08,14,34,8.70
2012,03,08,14,35,8.70
2012,03,08,14,36,8.70
2012,03,08,14,37,8.60
2012,03,08,14,38,8.60
2012,03,08,14,39,8.60
2012,03,08,14,40,8.70
2012,03,08,14,41,8.90
2012,03,08,14,42,8.90
2012,03,08,14,43,8.80
2012,03,08,14,44,8.90
2012,03,08,14,45,8.90
2012,03,08,14,46,8.90
2012,03,08,14,47,8.80
2012,03,08,14,48,8.80
2012,03,08,14,49,8.80
2012,03,08,14,50,8.70
2012,03,08,14,51,8.70
2012,03,08,14,52,8.70
2012,03,08,14,53,8.60
2012,03,08,14,54,8.60
2012,03,08,14,55,8.60
2012,03,08,14,56,8.50
2012,03,08,14,57,8.50
2012,03,08,14,58,8.50
2012,03,08,14,59,8.50
2012,03,08,15,00,8.70
2012,03,08,15,01,8.80
2012,03,08,15,02,8.70
2012,03,08,15,03,8.70
2012,03,08,15,04,8.60
2012,03,08,15,05,8.50
2012,03,08,15,06,8.40
2012,03,08,15,07,8.30
2012,03,08,15,08,8.20
2012,03,08,15,09,8.20
2012,03,08,15,10,8.10
2012,03,08,15,11,8.00
2012,03,08,15,12,7.90
2012,03,08,15,13,7.90
2012,03,08,15,14,7.90
2012,03,08,15,15,7.90
2012,03,08,15,16,7.90
2012,03,08,15,17,7.90
2012,03,08,15,18,7.80
2012,03,08,15,19,7.80
2012,03,08,15,20,7.80
2012,03,08,15,21,7.80
2012,03,08,15,22,7.80
2012,03,08,15,23,7.90
2012,03,08,15,24,7.90
2012,03,08,15,25,8.00
2012,03,08,15,26,8.00
2012,03,08,15,27,8.00
2012,03,08,15,28,8.10
2012,03,08,15,29,8.10
2012,03,08,15,30,8.10
2012,03,08,15,31,8.20
2012,03,08,15,32,8.20
2012,03,08,15,33,8.30
2012,03,08,15,34,8.40
2012,03,08,15,35,8.50
2012,03,08,15,36,8.70
2012,03,08,15,37,8.90
2012,03,08,15,38,8.90
2012,03,08,15,39,8.90
2012,03,08,15,40,8.80
2012,03,08,15,41,8.70
2012,03,08,15,42,8.70
2012,03,08,15,43,8.70
2012,03,08,15,44,8.70
2012,03,08,15,45,8.60
2012,03,08,15,46,8.60
2012,03,08,15,47,8.60
2012,03,08,15,48,8.70
2012,03,08,15,49,8.80
2012,03,08,15,50,8.90
2012,03,08,15,51,9.00
2012,03,08,15,52,9.10
2012,03,08,15,53,9.10
2012,03,08,15,54,9.10
2012,03,08,15,55,9.10
2012,03,08,15,56,9.10
2012,03,08,15,57,9.10
2012,03,08,15,58,9.20
2012,03,08,15,59,9.20
2012,03,08,16,00,9.20
2012,03,08,16,01,9.10
2012,03,08,16,02,9.10
2012,03,08,16,03,9.10
2012,03,08,16,04,9.10
2012,03,08,16,05,9.10
2012,03,08,16,06,9.10
2012,03,08,16,07,9.20
2012,03,08,16,08,9.20
2012,03,08,16,09,9.30
2012,03,08,16,10,9.30
2012,03,08,16,11,9.30
2012,03,08,16,12,9.40
2012,03,08,16,13,9.50
2012,03,08,16,14,9.60
2012,03,08,16,15,9.70
2012,03,08,16,16,9.80
2012,03,08,16,17,9.80
2012,03,08,16,18,9.80
2012,03,08,16,19,9.70
2012,03,08,16,20,9.70
2012,03,08,16,21,9.60
2012,03,08,16,22,9.40
2012,03,08,16,23,9.40
2012,03,08,16,24,9.50
2012,03,08,16,25,9.60
2012,03,08,16,26,9.60
2012,03,08,16,27,9.70
2012,03,08,16,28,9.70
2012,03,08,16,29,9.70
2012,03,08,16,30,9.70
2012,03,08,16,31,9.80
2012,03,08,16,32,9.80
2012,03,08,16,33,9.80
2012,03,08,16,34,9.70
2012,03,08,16,35,9.80
2012,03,08,16,36,9.70
2012,03,08,16,37,9.70
2012,03,08,16,38,9.70
2012,03,08,16,39,9.70
2012,03,08,16,40,9.60
2012,03,08,16,41,9.50
2012,03,08,16,42,9.40
2012,03,08,16,43,9.40
2012,03,08,16,44,9.40
2012,03,08,16,45,9.40
2012,03,08,16,46,9.40
2012,03,08,16,47,9.40
2012,03,08,16,48,9.40
2012,03,08,16,49,9.40
2012,03,08,16,50,9.50
2012,03,08,16,51,9.50
2012,03,08,16,52,9.50
2012,03,08,16,53,9.50
2012,03,08,16,54,9.50
2012,03,08,16,55,9.40
2012,03,08,16,56,9.40
2012,03,08,16,57,9.30
2012,03,08,16,58,9.20
2012,03,08,16,59,9.20
2012,03,08,17,00,9.10
2012,03,08,17,01,9.10
2012,03,08,17,02,9.10
2012,03,08,17,03,9.10
2012,03,08,17,04,9.10
2012,03,08,17,05,9.00
2012,03,08,17,06,9.00
2012,03,08,17,07,8.90
2012,03,08,17,08,8.90
2012,03,08,17,09,8.90
2012,03,08,17,10,8.90
2012,03,08,17,11,9.00
2012,03,08,17,12,9.00
2012,03,08,17,13,9.00
2012,03,08,17,14,9.00
2012,03,08,17,15,9.00
2012,03,08,17,16,9.00
2012,03,08,17,17,9.00
2012,03,08,17,18,9.00
2012,03,08,17,19,9.00
2012,03,08,17,20,9.00
2012,03,08,17,21,9.00
2012,03,08,17,22,9.00
2012,03,08,17,23,8.90
2012,03,08,17,24,8.90
2012,03,08,17,25,8.90
2012,03,08,17,26,8.80
2012,03,08,17,27,8.80
2012,03,08,17,28,8.80
2012,03,08,17,29,8.80
2012,03,08,17,30,8.80
2012,03,08,17,31,8.70
2012,03,08,17,32,8.70
2012,03,08,17,33,8.60
2012,03,08,17,34,8.60
2012,03,08,17,35,8.50
2012,03,08,17,36,8.50
2012,03,08,17,37,8.50
2012,03,08,17,38,8.50
2012,03,08,17,39,8.40
2012,03,08,17,40,8.40
2012,03,08,17,41,8.50
2012,03,08,17,42,8.40
2012,03,08,17,43,8.40
2012,03,08,17,44,8.40
2012,03,08,17,45,8.30
2012,03,08,17,46,8.30
2012,03,08,17,47,8.30
2012,03,08,17,48,8.30
2012,03,08,17,49,8.30
2012,03,08,17,50,8.30
2012,03,08,17,51,8.20
2012,03,08,17,52,8.20
2012,03,08,17,53,8.20
2012,03,08,17,54,8.20
2012,03,08,17,55,8.20
2012,03,08,17,56,8.20
2012,03,08,17,57,8.20
2012,03,08,17,58,8.20
2012,03,08,17,59,8.20
2012,03,08,18,00,8.20
2012,03,08,18,01,8.20
2012,03,08,18,02,8.10
2012,03,08,18,03,8.10
2012,03,08,18,04,8.10
2012,03,08,18,05,8.10
2012,03,08,18,06,8.10